{"data":{"norad_id":62044,"intl_designator":"2024-216N","name":"STARLINK-32577","alt_names":[],"object_type":"PAYLOAD","status":"ACTIVE","operator":null,"country":"US","launch_date":"2024-11-21","launch_site_code":"AFETR","launch_vehicle":null,"mission":null,"orbit_class":"UNKNOWN","rcs_meters":null,"size_class":null,"mass_kg":null,"dimensions":null,"purposes":["comms"],"wikipedia_slug":null,"has_3d_model":false,"image_url":null,"decayed_at":null,"tle_current":{"epoch":"2026-09-21T15:39:56.322144Z","epoch_age_seconds":85942,"freshness":"FRESH","line1":"1 62044U 24216N   26264.65273521  .00006575  00000+0  24813-3 0  9995","line2":"2 62044  42.9998 236.7227 0001287 269.6812  90.3893 15.27595085103777","mean_motion":15.27595085,"eccentricity":0.0001287,"inclination_deg":42.9998,"raan_deg":236.7227,"arg_perigee_deg":269.6812,"mean_anomaly_deg":90.3893,"bstar":0.00024813,"rev_number":10377,"period_min":94.265817829598,"perigee_km":482.12089765732,"apogee_km":483.8869553318,"semimajor_km":6861.1409264946,"source":"CELESTRAK","updated_at":"2026-09-22T09:00:49.488662Z"}}}